Regional Weather Roundup
Issued by NWS

Home | Current Version | Previous Version | Text Only | Print | Product List | Glossary On
Versions: 1 2 3 4 5 6 7 8 9 10 11 12 13 14 15 16 17 18 19 20 21 22 23 24 25 26 27 28 29 30 31 32 33 34 35 36 37 38 39 40 41 42 43 44 45 46 47 48 49 50
000
ASUS43 KMPX 020810
RWRMN
WEATHER ROUNDUP FOR MINNESOTA
NATIONAL WEATHER SERVICE TWIN CITIES/CHANHASSEN MN
200 AM CST MON MAR 02 2015


NOTE: "FAIR" INDICATES FEW OR NO CLOUDS BELOW 12,000 FEET WITH NO
SIGNIFICANT WEATHER AND/OR OBSTRUCTIONS TO VISIBILITY. N/A MEANS
CURRENT SKY AND/OR WEATHER CONDITIONS ARE NOT AVAILABLE.

MNZ060>063-068>070-020900-
   Twin Cities Metro

CITY           SKY/WX    TMP DP  RH WIND       PRES   REMARKS
TWIN CITIES    CLEAR     16   7  67 NW8       30.44R WCI   5
ST PAUL        CLEAR     17   8  67 NW12      30.46R WCI   4
CRYSTAL        CLEAR     16   8  71 NW6       30.44R WCI   7
BLAINE         CLEAR     16  10  79 NW7       30.44R WCI   6
LAKEVILLE      CLEAR      9   7  92 W7        30.43S WCI  -3
EDEN PRAIRIE   CLEAR     15   8  73 NW3       30.43R
SOUTH ST PAUL  CLEAR     18   9  67 NW10      30.44R WCI   6
LAKE ELMO      FAIR      18   9  68 NW8       30.44R WCI   7
$$
MNZ001>005-007-008-013>017-022>024-027-028-020900-
   Northwest Minnesota

CITY           SKY/WX    TMP DP  RH WIND       PRES   REMARKS
BEMIDJI        PTCLDY     3  -1  85 W5        30.32R WCI  -7
HALLOCK        PTCLDY     1  -2  85 W5        30.34S WCI  -8
ROSEAU         PTCLDY     7   1  78 W5        30.32S WCI  -2
WARROAD        CLEAR      3   0  85 W7        30.31S WCI  -9
THIEF RVR FALL MOCLDY     3   3 100 W6        30.34S WCI  -8
CROOKSTON      PTCLDY     3   0  85 W3        30.38R
FOSSTON        CLEAR      0  -6  78 CALM      30.34F
DETROIT LAKES  MOCLDY     3   1  92 SW5       30.37R WCI  -6
MOORHEAD       PTCLDY     5   3  92 S6        30.40S WCI  -6
PARK RAPIDS    CLEAR      3   0  87 S3        30.33S
MAHNOMEN       FAIR       1  -3  85 S6        30.35S WCI -11
$$
MNZ006-009>011-018-025>026-020900-
   North Central Minnesota

CITY           SKY/WX    TMP DP  RH WIND       PRES   REMARKS
BAUDETTE       CLEAR      3  -1  83 W7        30.29R WCI  -9
FLAG ISLAND    CLEAR      1  -2  85 W3        30.29R
INTL FALLS     CLEAR      5   2  87 W6        30.28R WCI  -6
WASKISH        CLEAR      3   1  92 SW7       30.31R WCI  -9
BIG FORK       CLEAR      3   0  85 SW6       30.31R WCI  -8
LONGVILLE      CLEAR      5   1  85 CALM      30.34S
GRAND RAPIDS   CLEAR      9   3  78 W7        30.30S WCI  -3
CRANE LAKE     PTCLDY     9   3  78 W3        30.29R
ORR            PTCLDY     7   1  78 CALM      30.26R
COOK           PTCLDY     7   3  85 W5        30.28R WCI  -2
WALKER         FAIR       6   2  84 W5        30.33S WCI  -3
$$
MNZ012-019>021-037-020900-
   Northeast Minnesota

CITY           SKY/WX    TMP DP  RH WIND       PRES   REMARKS
DULUTH         CLEAR      8   3  80 W10       30.30R WCI  -6
ELY            CLOUDY     9   3  78 W8        30.25R WCI  -4
HIBBING        CLEAR      9   3  77 W8        30.30R WCI  -3
EVELETH        CLEAR      5   1  85 SW7       30.30R WCI  -7
DULUTH HARBOR  CLEAR     12   5  73 CALM      30.39R
SILVER BAY     CLEAR     10   3  72 CALM      30.28R
GRAND MARAIS     N/A     15   3  59 VRB7      30.28R WCI   5
G MARAIS ARPRT FAIR       7  -2  66 W10G20    30.17R WCI  -8
$$
MNZ029>031-032-039>041-046>048-054>057-064-020900-
   West Central Minnesota

CITY           SKY/WX    TMP DP  RH WIND       PRES   REMARKS
FERGUS FALLS   PTCLDY     3   0  85 S3        30.45R
MORRIS         CLEAR      5   1  85 W5        30.42R WCI  -4
ALEXANDRIA     PTCLDY     3   0  87 CALM      30.39S
ELBOW LAKE     FAIR       4   1  90 CALM      30.40F
WADENA         PTCLDY     1   0  92 SW5       30.37S WCI  -8
APPLETON       CLEAR      7   3  85 SW7       30.45S WCI  -5
BENSON         CLEAR      7   3  85 CALM      30.44R
ORTONVILLE     CLEAR      9   1  72 SW3       30.44R
MADISON        CLEAR      9   3  78 W3        30.46R
WILLMAR        FAIR       5   1  85 W5        30.44F WCI  -4
$$
MNZ033>034-036-042>043-049>051-058-059-020900-
   Central Minnesota

CITY           SKY/WX    TMP DP  RH WIND       PRES   REMARKS
ST CLOUD       CLEAR     10   5  80 W6        30.42R WCI   0
SAUK CENTRE    FAIR       7   4  89 NW3       30.41S
PAYNESVILLE    CLEAR      6   5  93 S5        30.42R WCI  -2
PINE RIVER     CLEAR      7   3  85 CALM      30.39R
BRAINERD       CLEAR      6   4  91 W6        30.38R WCI  -4
STAPLES        CLEAR      1  -2  85 SW3       30.38R
LONG PRAIRIE   FAIR       9   5  85 W3        30.40S
LITTLE FALLS   CLEAR      3   0  85 CALM      30.42R
LITCHFIELD     CLEAR     10   9  92 CALM      30.43S
BUFFALO        CLEAR     14   9  79 W5        30.45R WCI   6
MAPLE LAKE     CLEAR     14  10  84 NW3       30.44R
$$
MNZ037-044-045-052-053-020900-
   East Central Minnesota

CITY           SKY/WX    TMP DP  RH WIND       PRES   REMARKS
PRINCETON      CLEAR      9   5  85 CALM      30.42R
MORA           CLEAR      9   3  78 W3        30.42R
CAMBRIDGE      CLEAR     12   3  67 W1        30.41R
RUSH CITY      CLEAR      8   3  80 W3        30.42R
MOOSE LAKE     CLEAR      5   1  85 CALM      30.36R
HINCKLEY       FAIR       9   5  85 W5        30.39S WCI   0
CLOQUET        CLEAR      9   3  78 W6        30.32S WCI  -1
MCGREGOR       CLEAR      9   5  85 SW3       30.36R
$$
MNZ071>073-080-081-089-090-097-098-020900-
   Southwest Minnesota

CITY           SKY/WX    TMP DP  RH WIND       PRES   REMARKS
MONTEVIDEO     CLEAR     10   7  85 W5        30.46S WCI   2
GRANITE FALLS  CLEAR      5   2  87 W6        30.48R WCI  -6
CANBY          PTCLDY     9   4  82 W7        30.46R WCI  -2
MARSHALL       PTCLDY     9   1  72 W9        30.47R WCI  -5
REDWOOD FALLS  CLEAR     10   6  84 W7        30.46S WCI  -1
OLIVIA         CLEAR      9   5  85 W3        30.45R
PIPESTONE      PTCLDY     9   5  85 CALM      30.42R
WINDOM         CLEAR      9   7  92 W5        30.44S WCI   0
WORTHINGTON    CLEAR     10   3  72 W6        30.46R WCI   1
JACKSON        PTCLDY    12   9  85 NW8       30.44S WCI   1
TRACY          PTCLDY    10   6  82 W6        30.45S WCI   0
SLAYTON        PTCLDY     8   2  80 CALM      30.43R
$$
MNZ065>067-074>077-082>085-091>093-020900-
   South Central Minnesota

CITY           SKY/WX    TMP DP  RH WIND       PRES   REMARKS
MANKATO        CLEAR     16   7  67 NW8       30.45R WCI   5
NEW ULM        CLEAR      9   5  85 W9        30.46S WCI  -5
ST JAMES       CLEAR     12   9  85 W8        30.46S WCI   1
FAIRMONT       CLEAR     12   7  79 NW8       30.43F WCI   1
GLENCOE        CLEAR     10   6  87 SW5       30.44R WCI   1
FARIBAULT      CLEAR     14   9  79 W6        30.44R WCI   5
OWATONNA       CLEAR     10   7  85 W6        30.43S WCI   1
WASECA         CLEAR     10   7  85 W8        30.46R WCI  -1
ALBERT LEA     CLEAR     12   9  85 NW6       30.43S WCI   3
$$
MNZ078>079-086>088-094>096-020900-
   Southeast Minnesota

CITY           SKY/WX    TMP DP  RH WIND       PRES   REMARKS
ROCHESTER      CLEAR     14   7  73 NW13      30.41R WCI   0
RED WING       CLEAR     19   9  63 NW7       30.43R WCI  10
STANTON        CLEAR     13   7  77 W5        30.43R WCI   6
DODGE CENTER   PTCLDY    16  10  79 NW10      30.41R WCI   3
WINONA         CLOUDY    23  14  68 NW8       30.43R WCI  14
AUSTIN         CLEAR     14   9  79 NW7       30.42S WCI   4
PRESTON        CLEAR     15   9  78 NW13      30.41R WCI   0
$$
ABBREVIATIONS USED IN REMARKS
   TC - TEMPERATURES IN CELSIUS
  WCI - WIND CHILL INDEX
   HX - HEAT INDEX
  VSB - VISIBILITY
$$



USA.gov is the U.S. government's official web portal to all federal, state and local government web resources and services.